Location: Rometta
(44.2000°N, 10.0500°E)
Time: 17:14:25
(UTC+00:00)

NOAA 15 - Pass Details

Date: 20 January 2021
Orbit: 798 x 812 km, 98.7° (Epoch: 01 March)

Event Time Altitude Azimuth Distance (km) Brightness Sun altitude
Rises 17:49:52 0° 159° (SSE) 3,292 7.7 -17.1°
Reaches altitude 10° 17:52:11 10° 158° (SSE) 2,367 6.9 -17.5°
Maximum altitude 17:57:24 76° 74° (ENE) 829 4.5 -18.4°
Drops below altitude 10° 18:02:41 10° 349° (N) 2,392 7.1 -19.3°
Sets 18:05:01 0° 348° (NNW) 3,329 7.8 -19.7°
